SPOT 7

Last updated on Thu Oct 30 2025 00:02:31 GMT+0000 (Coordinated Universal Time)

1 40053U 14034A 25302.48993506 .00000754 00000+0 16427-3 0 9998 2 40053 98.0964 5.5739 0001137 101.6957 258.4372 14.60646409603459
UTC large
Height (km)
Speed (km/s)
/
Latitude / Longitude
Inclination (degrees)
Orbital Period (minutes)
Azimuth
Elevation
Range (km)
Doppler Factor

Next 0 passes for location: London (51.5072 / 0.1276)

Sorry there are no passes over London.